Time,TemperatureF,DewpointF,PressureIn,WindDirection,WindDirectionDegrees,WindSpeedMPH,WindSpeedGustMPH,Humidity,HourlyPrecipIn,Conditions,Clouds,dailyrainin,SoftwareType,DateUTC
2013-12-11 00:00:00,19.0,10.8,29.72,NE,47,2.0,4.0,70,0.00,,,0.00,Wunderground v.1.15,2013-12-11 05:00:00,
2013-12-11 00:05:00,19.0,10.8,29.72,NE,37,2.0,2.0,70,0.00,,,0.00,Wunderground v.1.15,2013-12-11 05:05:00,
2013-12-11 00:10:00,18.9,10.7,29.73,WSW,242,2.0,4.0,70,0.00,,,0.00,Wunderground v.1.15,2013-12-11 05:10:00,
2013-12-11 00:15:00,18.9,10.7,29.73,West,279,2.0,2.0,70,0.00,,,0.00,Wunderground v.1.15,2013-12-11 05:15:00,
2013-12-11 00:20:00,18.8,10.3,29.73,ENE,63,2.0,3.0,69,0.00,,,0.00,Wunderground v.1.15,2013-12-11 05:20:00,
2013-12-11 00:25:00,18.7,10.2,29.73,NNE,13,2.0,2.0,69,0.00,,,0.00,Wunderground v.1.15,2013-12-11 05:25:00,
2013-12-11 00:30:00,18.6,10.1,29.73,East,86,2.0,4.0,69,0.00,,,0.00,Wunderground v.1.15,2013-12-11 05:30:00,
2013-12-11 00:35:00,18.5,10.0,29.73,North,351,2.0,4.0,69,0.00,,,0.00,Wunderground v.1.15,2013-12-11 05:35:00,
2013-12-11 00:40:00,18.5,10.0,29.73,WNW,295,2.0,5.0,69,0.00,,,0.00,Wunderground v.1.15,2013-12-11 05:40:00,
2013-12-11 00:45:00,18.4,9.6,29.73,WSW,253,3.0,7.0,68,0.00,,,0.00,Wunderground v.1.15,2013-12-11 05:45:00,
2013-12-11 00:50:00,18.2,9.4,29.73,SW,236,3.0,7.0,68,0.00,,,0.00,Wunderground v.1.15,2013-12-11 05:50:00,
2013-12-11 00:55:00,18.1,9.6,29.73,NNE,14,3.0,3.0,69,0.00,,,0.00,Wunderground v.1.15,2013-12-11 05:55:00,
2013-12-11 01:00:00,18.1,9.6,29.74,West,278,2.0,4.0,69,0.00,,,0.00,Wunderground v.1.15,2013-12-11 06:00:00,
2013-12-11 01:05:00,18.2,9.7,29.74,WSW,246,2.0,4.0,69,0.00,,,0.00,Wunderground v.1.15,2013-12-11 06:05:00,
2013-12-11 01:10:00,18.2,9.7,29.74,South,172,3.0,4.0,69,0.00,,,0.00,Wunderground v.1.15,2013-12-11 06:10:00,
2013-12-11 01:15:00,18.3,9.8,29.74,North,360,3.0,3.0,69,0.00,,,0.00,Wunderground v.1.15,2013-12-11 06:15:00,
2013-12-11 01:20:00,18.4,9.9,29.74,WNW,283,2.0,8.0,69,0.00,,,0.00,Wunderground v.1.15,2013-12-11 06:20:00,
2013-12-11 01:25:00,18.4,9.6,29.75,NNW,333,2.0,2.0,68,0.00,,,0.00,Wunderground v.1.15,2013-12-11 06:25:00,
2013-12-11 01:30:00,18.4,9.6,29.75,West,274,2.0,5.0,68,0.00,,,0.00,Wunderground v.1.15,2013-12-11 06:30:00,
2013-12-11 01:35:00,18.4,9.6,29.75,ESE,107,2.0,2.0,68,0.00,,,0.00,Wunderground v.1.15,2013-12-11 06:35:00,
2013-12-11 01:40:00,18.5,9.7,29.75,West,268,3.0,3.0,68,0.00,,,0.00,Wunderground v.1.15,2013-12-11 06:40:00,
2013-12-11 01:45:00,18.5,9.7,29.75,East,85,3.0,3.0,68,0.00,,,0.00,Wunderground v.1.15,2013-12-11 06:45:00,
2013-12-11 01:50:00,18.5,9.7,29.76,NNW,336,3.0,4.0,68,0.00,,,0.00,Wunderground v.1.15,2013-12-11 06:50:00,
2013-12-11 01:55:00,18.5,9.7,29.76,West,269,3.0,4.0,68,0.00,,,0.00,Wunderground v.1.15,2013-12-11 06:55:00,
2013-12-11 02:00:00,18.6,9.8,29.76,SW,224,1.0,4.0,68,0.00,,,0.00,Wunderground v.1.15,2013-12-11 07:00:00,
2013-12-11 02:05:00,18.5,9.7,29.76,West,273,2.0,4.0,68,0.00,,,0.00,Wunderground v.1.15,2013-12-11 07:05:00,
2013-12-11 02:10:00,18.5,10.0,29.77,NE,38,2.0,4.0,69,0.00,,,0.00,Wunderground v.1.15,2013-12-11 07:10:00,
2013-12-11 02:15:00,18.5,10.3,29.77,SW,232,2.0,2.0,70,0.00,,,0.00,Wunderground v.1.15,2013-12-11 07:15:00,
2013-12-11 02:20:00,18.5,10.3,29.77,WSW,244,2.0,5.0,70,0.00,,,0.00,Wunderground v.1.15,2013-12-11 07:20:00,
2013-12-11 02:25:00,18.5,10.3,29.77,ENE,66,2.0,2.0,70,0.00,,,0.00,Wunderground v.1.15,2013-12-11 07:25:00,
2013-12-11 02:30:00,18.5,10.7,29.77,SW,217,2.0,4.0,71,0.00,,,0.00,Wunderground v.1.15,2013-12-11 07:30:00,
2013-12-11 02:35:00,18.5,10.7,29.77,West,263,1.0,4.0,71,0.00,,,0.00,Wunderground v.1.15,2013-12-11 07:35:00,
2013-12-11 02:40:00,18.5,11.0,29.78,NE,38,2.0,4.0,72,0.00,,,0.00,Wunderground v.1.15,2013-12-11 07:40:00,
2013-12-11 02:45:00,18.4,11.2,29.78,SE,136,2.0,2.0,73,0.00,,,0.00,Wunderground v.1.15,2013-12-11 07:45:00,
2013-12-11 02:50:00,18.4,11.5,29.78,NNE,17,1.0,3.0,74,0.00,,,0.00,Wunderground v.1.15,2013-12-11 07:50:00,
2013-12-11 02:55:00,18.4,11.8,29.78,ENE,76,1.0,4.0,75,0.00,,,0.00,Wunderground v.1.15,2013-12-11 07:55:00,
2013-12-11 03:00:00,18.5,11.9,29.78,East,88,2.0,4.0,75,0.00,,,0.00,Wunderground v.1.15,2013-12-11 08:00:00,
2013-12-11 03:05:00,18.4,12.1,29.78,West,266,2.0,2.0,76,0.00,,,0.00,Wunderground v.1.15,2013-12-11 08:05:00,
2013-12-11 03:10:00,18.5,12.2,29.78,SSW,202,2.0,4.0,76,0.00,,,0.00,Wunderground v.1.15,2013-12-11 08:10:00,
2013-12-11 03:20:00,18.6,12.6,29.78,SW,216,1.0,2.0,77,0.00,,,0.00,Wunderground v.1.15,2013-12-11 08:20:00,
2013-12-11 03:25:00,18.6,12.9,29.78,NE,34,1.0,4.0,78,0.00,,,0.00,Wunderground v.1.15,2013-12-11 08:25:00,
2013-12-11 03:30:00,18.8,13.1,29.78,WNW,285,3.0,4.0,78,0.00,,,0.00,Wunderground v.1.15,2013-12-11 08:30:00,
2013-12-11 03:35:00,19.0,13.6,29.78,WNW,287,3.0,6.0,79,0.00,,,0.00,Wunderground v.1.15,2013-12-11 08:35:00,
2013-12-11 03:40:00,19.1,13.7,29.78,West,270,2.0,6.0,79,0.00,,,0.00,Wunderground v.1.15,2013-12-11 08:40:00,
2013-12-11 03:50:00,19.3,13.9,29.79,ENE,67,2.0,4.0,79,0.00,,,0.00,Wunderground v.1.15,2013-12-11 08:50:00,
2013-12-11 03:55:00,19.4,13.9,29.79,WSW,245,2.0,4.0,79,0.00,,,0.00,Wunderground v.1.15,2013-12-11 08:55:00,
2013-12-11 04:00:00,19.4,13.7,29.79,NNE,29,3.0,4.0,78,0.00,,,0.00,Wunderground v.1.15,2013-12-11 09:00:00,
2013-12-11 04:05:00,19.4,13.7,29.79,West,280,4.0,4.0,78,0.00,,,0.00,Wunderground v.1.15,2013-12-11 09:05:00,
2013-12-11 04:10:00,19.4,13.4,29.80,North,351,4.0,5.0,77,0.00,,,0.00,Wunderground v.1.15,2013-12-11 09:10:00,
2013-12-11 04:15:00,19.4,13.1,29.80,WNW,292,4.0,4.0,76,0.00,,,0.00,Wunderground v.1.15,2013-12-11 09:15:00,
2013-12-11 04:20:00,19.4,12.8,29.80,SW,218,4.0,7.0,75,0.00,,,0.00,Wunderground v.1.15,2013-12-11 09:20:00,
2013-12-11 04:25:00,19.3,12.7,29.80,ENE,66,3.0,3.0,75,0.00,,,0.00,Wunderground v.1.15,2013-12-11 09:25:00,
2013-12-11 04:30:00,19.3,12.7,29.80,SSW,213,2.0,4.0,75,0.00,,,0.00,Wunderground v.1.15,2013-12-11 09:30:00,
2013-12-11 04:35:00,19.3,12.7,29.80,SSW,202,2.0,4.0,75,0.00,,,0.00,Wunderground v.1.15,2013-12-11 09:35:00,
2013-12-11 04:40:00,19.3,12.7,29.80,NNW,348,2.0,4.0,75,0.00,,,0.00,Wunderground v.1.15,2013-12-11 09:40:00,
2013-12-11 04:45:00,19.3,13.0,29.80,East,90,2.0,4.0,76,0.00,,,0.00,Wunderground v.1.15,2013-12-11 09:45:00,
2013-12-11 04:55:00,19.2,12.9,29.80,WSW,242,1.0,4.0,76,0.00,,,0.00,Wunderground v.1.15,2013-12-11 09:55:00,
2013-12-11 05:05:00,19.2,12.6,29.81,SE,134,2.0,2.0,75,0.00,,,0.00,Wunderground v.1.15,2013-12-11 10:05:00,
2013-12-11 05:10:00,19.2,12.6,29.81,SW,233,2.0,4.0,75,0.00,,,0.00,Wunderground v.1.15,2013-12-11 10:10:00,
2013-12-11 05:20:00,19.2,12.6,29.81,West,269,1.0,4.0,75,0.00,,,0.00,Wunderground v.1.15,2013-12-11 10:20:00,
2013-12-11 05:30:00,19.2,12.6,29.82,WNW,287,2.0,6.0,75,0.00,,,0.00,Wunderground v.1.15,2013-12-11 10:30:00,
2013-12-11 05:35:00,19.2,12.6,29.82,NNW,342,2.0,2.0,75,0.00,,,0.00,Wunderground v.1.15,2013-12-11 10:35:00,
2013-12-11 05:40:00,19.2,12.9,29.82,WSW,252,2.0,4.0,76,0.00,,,0.00,Wunderground v.1.15,2013-12-11 10:40:00,
2013-12-11 05:45:00,19.2,12.9,29.82,WNW,292,2.0,2.0,76,0.00,,,0.00,Wunderground v.1.15,2013-12-11 10:45:00,
2013-12-11 05:50:00,19.2,12.9,29.82,West,265,1.0,4.0,76,0.00,,,0.00,Wunderground v.1.15,2013-12-11 10:50:00,
2013-12-11 05:55:00,19.1,13.1,29.82,SSW,210,2.0,2.0,77,0.00,,,0.00,Wunderground v.1.15,2013-12-11 10:55:00,
2013-12-11 06:00:00,19.1,13.1,29.82,SSW,209,1.0,4.0,77,0.00,,,0.00,Wunderground v.1.15,2013-12-11 11:00:00,
2013-12-11 06:05:00,19.1,13.4,29.83,SSW,209,1.0,1.0,78,0.00,,,0.00,Wunderground v.1.15,2013-12-11 11:05:00,
2013-12-11 06:10:00,19.1,13.7,29.83,NNE,27,1.0,2.0,79,0.00,,,0.00,Wunderground v.1.15,2013-12-11 11:10:00,
2013-12-11 06:15:00,19.1,13.7,29.83,ENE,64,1.0,4.0,79,0.00,,,0.00,Wunderground v.1.15,2013-12-11 11:15:00,
2013-12-11 06:20:00,19.1,13.7,29.83,SSW,207,1.0,4.0,79,0.00,,,0.00,Wunderground v.1.15,2013-12-11 11:20:00,
2013-12-11 06:25:00,19.1,13.9,29.83,SSW,207,1.0,1.0,80,0.00,,,0.00,Wunderground v.1.15,2013-12-11 11:25:00,
2013-12-11 06:35:00,19.1,13.9,29.84,NE,42,2.0,2.0,80,0.00,,,0.00,Wunderground v.1.15,2013-12-11 11:35:00,
2013-12-11 06:40:00,19.1,13.9,29.84,WSW,253,2.0,4.0,80,0.00,,,0.00,Wunderground v.1.15,2013-12-11 11:40:00,
2013-12-11 06:45:00,19.1,14.2,29.84,West,272,1.0,4.0,81,0.00,,,0.00,Wunderground v.1.15,2013-12-11 11:45:00,
2013-12-11 06:50:00,19.1,14.2,29.84,West,273,1.0,4.0,81,0.00,,,0.00,Wunderground v.1.15,2013-12-11 11:50:00,
2013-12-11 06:55:00,19.1,14.2,29.84,SW,232,1.0,4.0,81,0.00,,,0.00,Wunderground v.1.15,2013-12-11 11:55:00,
2013-12-11 07:00:00,19.1,14.2,29.84,West,275,2.0,6.0,81,0.00,,,0.00,Wunderground v.1.15,2013-12-11 12:00:00,
2013-12-11 07:05:00,19.1,14.2,29.84,West,262,3.0,3.0,81,0.00,,,0.00,Wunderground v.1.15,2013-12-11 12:05:00,
2013-12-11 07:10:00,19.1,14.5,29.84,West,262,2.0,4.0,82,0.00,,,0.00,Wunderground v.1.15,2013-12-11 12:10:00,
2013-12-11 07:15:00,19.0,14.4,29.84,WSW,257,1.0,1.0,82,0.00,,,0.00,Wunderground v.1.15,2013-12-11 12:15:00,
2013-12-11 07:20:00,19.0,14.4,29.84,WSW,257,1.0,4.0,82,0.00,,,0.00,Wunderground v.1.15,2013-12-11 12:20:00,
2013-12-11 07:25:00,19.0,14.7,29.84,West,261,1.0,1.0,83,0.00,,,0.00,Wunderground v.1.15,2013-12-11 12:25:00,
2013-12-11 07:30:00,19.0,14.7,29.85,SSW,201,1.0,4.0,83,0.00,,,0.00,Wunderground v.1.15,2013-12-11 12:30:00,
2013-12-11 07:40:00,19.1,15.1,29.86,West,275,1.0,4.0,84,0.00,,,0.00,Wunderground v.1.15,2013-12-11 12:40:00,
2013-12-11 07:45:00,19.1,15.1,29.86,West,277,1.0,1.0,84,0.00,,,0.00,Wunderground v.1.15,2013-12-11 12:45:00,
2013-12-11 07:50:00,19.1,15.3,29.86,WSW,254,1.0,4.0,85,0.00,,,0.00,Wunderground v.1.15,2013-12-11 12:50:00,
2013-12-11 07:55:00,19.1,15.3,29.86,WSW,254,2.0,4.0,85,0.00,,,0.00,Wunderground v.1.15,2013-12-11 12:55:00,
2013-12-11 08:00:00,19.1,15.6,29.86,WSW,254,1.0,4.0,86,0.00,,,0.00,Wunderground v.1.15,2013-12-11 13:00:00,
2013-12-11 08:05:00,19.1,15.6,29.86,WSW,254,1.0,1.0,86,0.00,,,0.00,Wunderground v.1.15,2013-12-11 13:05:00,
2013-12-11 08:10:00,19.0,15.8,29.86,WSW,254,1.0,4.0,87,0.00,,,0.00,Wunderground v.1.15,2013-12-11 13:10:00,
2013-12-11 08:15:00,19.1,15.9,29.86,WSW,257,1.0,1.0,87,0.00,,,0.00,Wunderground v.1.15,2013-12-11 13:15:00,
2013-12-11 08:20:00,19.1,15.9,29.87,WSW,257,1.0,4.0,87,0.00,,,0.00,Wunderground v.1.15,2013-12-11 13:20:00,
2013-12-11 08:25:00,19.1,16.1,29.88,WSW,257,0.0,4.0,88,0.00,,,0.00,Wunderground v.1.15,2013-12-11 13:25:00,
2013-12-11 08:30:00,19.1,16.1,29.88,WSW,257,0.0,4.0,88,0.00,,,0.00,Wunderground v.1.15,2013-12-11 13:30:00,
2013-12-11 08:35:00,19.1,16.1,29.87,WSW,257,0.0,4.0,88,0.00,,,0.00,Wunderground v.1.15,2013-12-11 13:35:00,
2013-12-11 08:40:00,19.2,16.5,29.89,WSW,257,0.0,4.0,89,0.00,,,0.00,Wunderground v.1.15,2013-12-11 13:40:00,
2013-12-11 08:45:00,19.2,16.5,29.88,WSW,257,0.0,4.0,89,0.00,,,0.00,Wunderground v.1.15,2013-12-11 13:45:00,
2013-12-11 08:50:00,19.2,16.5,29.88,WSW,257,1.0,4.0,89,0.00,,,0.00,Wunderground v.1.15,2013-12-11 13:50:00,
2013-12-11 08:55:00,19.3,16.6,29.88,WSW,257,0.0,4.0,89,0.00,,,0.00,Wunderground v.1.15,2013-12-11 13:55:00,
2013-12-11 09:00:00,19.3,16.6,29.88,WSW,257,0.0,4.0,89,0.00,,,0.00,Wunderground v.1.15,2013-12-11 14:00:00,
2013-12-11 09:05:00,19.4,16.7,29.88,WSW,257,0.0,4.0,89,0.00,,,0.00,Wunderground v.1.15,2013-12-11 14:05:00,
2013-12-11 09:10:00,19.4,16.7,29.89,WSW,257,0.0,4.0,89,0.00,,,0.00,Wunderground v.1.15,2013-12-11 14:10:00,
2013-12-11 09:15:00,19.5,16.8,29.89,WSW,257,0.0,4.0,89,0.00,,,0.00,Wunderground v.1.15,2013-12-11 14:15:00,
2013-12-11 09:20:00,19.5,16.8,29.88,WSW,258,0.0,4.0,89,0.00,,,0.00,Wunderground v.1.15,2013-12-11 14:20:00,
2013-12-11 09:25:00,19.7,17.2,29.88,WSW,258,0.0,4.0,90,0.00,,,0.00,Wunderground v.1.15,2013-12-11 14:25:00,
2013-12-11 09:30:00,19.7,17.2,29.89,WSW,258,0.0,4.0,90,0.00,,,0.00,Wunderground v.1.15,2013-12-11 14:30:00,
2013-12-11 09:35:00,19.8,17.3,29.89,WSW,258,0.0,4.0,90,0.00,,,0.00,Wunderground v.1.15,2013-12-11 14:35:00,
2013-12-11 09:40:00,19.8,17.3,29.89,WSW,258,0.0,4.0,90,0.00,,,0.00,Wunderground v.1.15,2013-12-11 14:40:00,
2013-12-11 09:45:00,19.8,17.3,29.88,WSW,258,0.0,4.0,90,0.00,,,0.00,Wunderground v.1.15,2013-12-11 14:45:00,
2013-12-11 09:50:00,19.9,17.4,29.89,WSW,258,1.0,4.0,90,0.00,,,0.00,Wunderground v.1.15,2013-12-11 14:50:00,
2013-12-11 09:55:00,20.0,17.5,29.89,WSW,258,1.0,1.0,90,0.00,,,0.00,Wunderground v.1.15,2013-12-11 14:55:00,
2013-12-11 10:00:00,20.0,17.5,29.89,WSW,258,0.0,4.0,90,0.00,,,0.00,Wunderground v.1.15,2013-12-11 15:00:00,
2013-12-11 10:05:00,20.2,17.7,29.89,WSW,258,0.0,4.0,90,0.00,,,0.00,Wunderground v.1.15,2013-12-11 15:05:00,
2013-12-11 10:10:00,20.2,17.7,29.89,WSW,258,0.0,4.0,90,0.00,,,0.00,Wunderground v.1.15,2013-12-11 15:10:00,
2013-12-11 10:20:00,20.7,18.2,29.89,WSW,258,0.0,4.0,90,0.00,,,0.00,Wunderground v.1.15,2013-12-11 15:20:00,
2013-12-11 10:25:00,20.9,18.4,29.89,WSW,258,0.0,4.0,90,0.00,,,0.00,Wunderground v.1.15,2013-12-11 15:25:00,
2013-12-11 10:30:00,21.0,18.3,29.89,WSW,258,0.0,4.0,89,0.00,,,0.00,Wunderground v.1.15,2013-12-11 15:30:00,
2013-12-11 10:35:00,21.1,18.4,29.89,WSW,258,0.0,4.0,89,0.00,,,0.00,Wunderground v.1.15,2013-12-11 15:35:00,
2013-12-11 10:40:00,21.1,18.4,29.89,WSW,258,0.0,4.0,89,0.00,,,0.00,Wunderground v.1.15,2013-12-11 15:40:00,
2013-12-11 10:50:00,21.2,18.5,29.89,WSW,258,1.0,4.0,89,0.00,,,0.00,Wunderground v.1.15,2013-12-11 15:50:00,
2013-12-11 10:55:00,21.3,18.6,29.88,WSW,258,1.0,1.0,89,0.00,,,0.00,Wunderground v.1.15,2013-12-11 15:55:00,
2013-12-11 11:00:00,21.4,18.7,29.88,WSW,258,1.0,4.0,89,0.00,,,0.00,Wunderground v.1.15,2013-12-11 16:00:00,
2013-12-11 11:05:00,21.5,18.8,29.88,WSW,258,1.0,1.0,89,0.00,,,0.00,Wunderground v.1.15,2013-12-11 16:05:00,
2013-12-11 11:10:00,21.6,18.9,29.88,NNW,337,0.0,4.0,89,0.00,,,0.00,Wunderground v.1.15,2013-12-11 16:10:00,
2013-12-11 11:15:00,21.6,18.9,29.88,West,265,1.0,1.0,89,0.00,,,0.00,Wunderground v.1.15,2013-12-11 16:15:00,
2013-12-11 11:20:00,21.5,18.5,29.87,WSW,248,1.0,4.0,88,0.00,,,0.00,Wunderground v.1.15,2013-12-11 16:20:00,
2013-12-11 11:25:00,21.6,18.9,29.87,WSW,248,1.0,1.0,89,0.00,,,0.00,Wunderground v.1.15,2013-12-11 16:25:00,
2013-12-11 11:30:00,21.7,19.0,29.87,WSW,248,1.0,4.0,89,0.00,,,0.00,Wunderground v.1.15,2013-12-11 16:30:00,
2013-12-11 11:35:00,21.9,19.2,29.87,WSW,248,1.0,1.0,89,0.00,,,0.00,Wunderground v.1.15,2013-12-11 16:35:00,
2013-12-11 11:40:00,22.0,19.3,29.87,NW,306,1.0,5.0,89,0.00,,,0.00,Wunderground v.1.15,2013-12-11 16:40:00,
2013-12-11 11:45:00,21.9,18.9,29.86,West,263,2.0,4.0,88,0.00,,,0.00,Wunderground v.1.15,2013-12-11 16:45:00,
2013-12-11 11:50:00,21.9,18.9,29.86,WSW,246,3.0,4.0,88,0.00,,,0.00,Wunderground v.1.15,2013-12-11 16:50:00,
2013-12-11 11:55:00,22.2,19.2,29.86,West,280,3.0,3.0,88,0.00,,,0.00,Wunderground v.1.15,2013-12-11 16:55:00,
2013-12-11 12:00:00,22.6,19.3,29.85,WSW,242,2.0,4.0,87,0.00,,,0.00,Wunderground v.1.15,2013-12-11 17:00:00,
2013-12-11 12:05:00,22.8,19.2,29.85,West,273,2.0,10.0,86,0.00,,,0.00,Wunderground v.1.15,2013-12-11 17:05:00,
2013-12-11 12:10:00,22.7,18.0,29.85,WSW,246,4.0,10.0,82,0.00,,,0.00,Wunderground v.1.15,2013-12-11 17:10:00,
2013-12-11 12:15:00,22.9,17.9,29.85,West,270,5.0,5.0,81,0.00,,,0.00,Wunderground v.1.15,2013-12-11 17:15:00,
2013-12-11 12:20:00,23.1,17.6,29.85,NNW,334,4.0,5.0,79,0.00,,,0.00,Wunderground v.1.15,2013-12-11 17:20:00,
2013-12-11 12:25:00,23.1,17.3,29.84,West,261,3.0,4.0,78,0.00,,,0.00,Wunderground v.1.15,2013-12-11 17:25:00,
2013-12-11 12:30:00,22.9,17.1,29.84,WSW,238,3.0,4.0,78,0.00,,,0.00,Wunderground v.1.15,2013-12-11 17:30:00,
2013-12-11 12:35:00,22.9,17.1,29.84,ENE,78,3.0,3.0,78,0.00,,,0.00,Wunderground v.1.15,2013-12-11 17:35:00,
2013-12-11 12:40:00,22.9,17.1,29.84,West,268,3.0,7.0,78,0.00,,,0.00,Wunderground v.1.15,2013-12-11 17:40:00,
2013-12-11 12:50:00,22.7,17.5,29.84,WSW,245,4.0,10.0,80,0.00,,,0.00,Wunderground v.1.15,2013-12-11 17:50:00,
2013-12-11 12:55:00,22.7,18.0,29.84,NNE,19,3.0,3.0,82,0.00,,,0.00,Wunderground v.1.15,2013-12-11 17:55:00,
2013-12-11 13:00:00,22.6,18.2,29.84,NNE,22,3.0,4.0,83,0.00,,,0.00,Wunderground v.1.15,2013-12-11 18:00:00,
2013-12-11 13:05:00,22.6,18.5,29.84,WSW,258,2.0,2.0,84,0.00,,,0.00,Wunderground v.1.15,2013-12-11 18:05:00,
2013-12-11 13:10:00,22.5,18.7,29.84,NNE,33,1.0,4.0,85,0.00,,,0.00,Wunderground v.1.15,2013-12-11 18:10:00,
2013-12-11 13:15:00,22.3,18.7,29.84,SW,225,1.0,4.0,86,0.00,,,0.00,Wunderground v.1.15,2013-12-11 18:15:00,
2013-12-11 13:20:00,22.4,19.1,29.84,SW,214,1.0,4.0,87,0.00,,,0.00,Wunderground v.1.15,2013-12-11 18:20:00,
2013-12-11 13:30:00,22.5,19.2,29.84,WNW,302,1.0,4.0,87,0.00,,,0.00,Wunderground v.1.15,2013-12-11 18:30:00,
2013-12-11 13:35:00,22.4,19.1,29.84,West,270,1.0,7.0,87,0.00,,,0.00,Wunderground v.1.15,2013-12-11 18:35:00,
2013-12-11 13:40:00,22.4,19.1,29.84,West,259,1.0,7.0,87,0.00,,,0.00,Wunderground v.1.15,2013-12-11 18:40:00,
2013-12-11 13:45:00,22.3,19.0,29.83,WNW,289,2.0,5.0,87,0.00,,,0.00,Wunderground v.1.15,2013-12-11 18:45:00,
2013-12-11 13:50:00,22.3,19.3,29.84,WSW,254,1.0,5.0,88,0.00,,,0.00,Wunderground v.1.15,2013-12-11 18:50:00,
2013-12-11 13:55:00,22.4,19.4,29.83,WSW,250,1.0,4.0,88,0.00,,,0.00,Wunderground v.1.15,2013-12-11 18:55:00,
2013-12-11 14:00:00,22.2,19.2,29.83,West,266,2.0,4.0,88,0.00,,,0.00,Wunderground v.1.15,2013-12-11 19:00:00,
2013-12-11 14:05:00,22.2,19.5,29.83,West,263,2.0,4.0,89,0.00,,,0.00,Wunderground v.1.15,2013-12-11 19:05:00,
2013-12-11 14:10:00,22.1,19.4,29.83,West,265,2.0,4.0,89,0.00,,,0.00,Wunderground v.1.15,2013-12-11 19:10:00,
2013-12-11 14:15:00,22.0,19.3,29.83,West,265,2.0,2.0,89,0.00,,,0.00,Wunderground v.1.15,2013-12-11 19:15:00,
2013-12-11 14:20:00,22.1,19.4,29.83,West,265,2.0,5.0,89,0.00,,,0.00,Wunderground v.1.15,2013-12-11 19:20:00,
2013-12-11 14:25:00,22.1,19.4,29.83,West,265,2.0,2.0,89,0.00,,,0.00,Wunderground v.1.15,2013-12-11 19:25:00,
2013-12-11 14:30:00,22.1,19.4,29.83,West,265,1.0,4.0,89,0.00,,,0.00,Wunderground v.1.15,2013-12-11 19:30:00,
2013-12-11 14:35:00,22.1,19.4,29.83,West,265,1.0,1.0,89,0.00,,,0.00,Wunderground v.1.15,2013-12-11 19:35:00,
2013-12-11 14:40:00,22.0,19.3,29.83,West,265,0.0,4.0,89,0.00,,,0.00,Wunderground v.1.15,2013-12-11 19:40:00,
2013-12-11 14:45:00,22.1,19.6,29.83,West,265,0.0,4.0,90,0.00,,,0.00,Wunderground v.1.15,2013-12-11 19:45:00,
2013-12-11 14:50:00,22.0,19.5,29.83,West,265,0.0,4.0,90,0.00,,,0.00,Wunderground v.1.15,2013-12-11 19:50:00,
2013-12-11 14:55:00,22.1,19.6,29.83,West,265,0.0,4.0,90,0.00,,,0.00,Wunderground v.1.15,2013-12-11 19:55:00,
2013-12-11 15:00:00,22.1,19.6,29.83,West,265,0.0,4.0,90,0.00,,,0.00,Wunderground v.1.15,2013-12-11 20:00:00,
2013-12-11 15:10:00,21.6,19.1,29.83,NW,317,2.0,2.0,90,0.00,,,0.00,Wunderground v.1.15,2013-12-11 20:10:00,
2013-12-11 15:15:00,21.5,19.0,29.83,WNW,290,1.0,1.0,90,0.00,,,0.00,Wunderground v.1.15,2013-12-11 20:15:00,
2013-12-11 15:20:00,21.5,19.3,29.83,WNW,289,0.0,4.0,91,0.00,,,0.00,Wunderground v.1.15,2013-12-11 20:20:00,
2013-12-11 15:25:00,21.5,19.3,29.83,WNW,292,0.0,4.0,91,0.00,,,0.00,Wunderground v.1.15,2013-12-11 20:25:00,
2013-12-11 15:30:00,21.5,19.3,29.83,WNW,295,0.0,4.0,91,0.00,,,0.00,Wunderground v.1.15,2013-12-11 20:30:00,
2013-12-11 15:35:00,21.5,19.3,29.83,WNW,301,0.0,4.0,91,0.00,,,0.00,Wunderground v.1.15,2013-12-11 20:35:00,
2013-12-11 15:40:00,21.5,19.3,29.83,North,5,0.0,4.0,91,0.00,,,0.00,Wunderground v.1.15,2013-12-11 20:40:00,
2013-12-11 15:45:00,21.4,19.2,29.83,NE,50,0.0,4.0,91,0.00,,,0.00,Wunderground v.1.15,2013-12-11 20:45:00,
2013-12-11 15:50:00,21.4,19.2,29.83,NE,50,0.0,4.0,91,0.00,,,0.00,Wunderground v.1.15,2013-12-11 20:50:00,
2013-12-11 15:55:00,21.3,19.1,29.83,NW,309,0.0,4.0,91,0.00,,,0.00,Wunderground v.1.15,2013-12-11 20:55:00,
2013-12-11 16:00:00,21.2,19.0,29.83,NE,52,1.0,4.0,91,0.00,,,0.00,Wunderground v.1.15,2013-12-11 21:00:00,
2013-12-11 16:05:00,21.1,18.9,29.83,NE,53,1.0,1.0,91,0.00,,,0.00,Wunderground v.1.15,2013-12-11 21:05:00,
2013-12-11 16:10:00,20.9,18.7,29.83,ENE,61,0.0,2.0,91,0.00,,,0.00,Wunderground v.1.15,2013-12-11 21:10:00,
2013-12-11 16:15:00,20.7,18.5,29.83,ENE,63,0.0,4.0,91,0.00,,,0.00,Wunderground v.1.15,2013-12-11 21:15:00,
2013-12-11 16:20:00,20.4,18.2,29.83,ENE,63,1.0,4.0,91,0.00,,,0.00,Wunderground v.1.15,2013-12-11 21:20:00,
2013-12-11 16:25:00,20.2,18.0,29.83,East,89,1.0,4.0,91,0.00,,,0.00,Wunderground v.1.15,2013-12-11 21:25:00,
2013-12-11 16:30:00,20.0,17.8,29.83,ENE,70,1.0,4.0,91,0.00,,,0.00,Wunderground v.1.15,2013-12-11 21:30:00,
2013-12-11 16:35:00,19.8,17.6,29.83,East,94,1.0,4.0,91,0.00,,,0.00,Wunderground v.1.15,2013-12-11 21:35:00,
2013-12-11 16:40:00,19.7,17.8,29.83,ENE,65,1.0,4.0,92,0.00,,,0.00,Wunderground v.1.15,2013-12-11 21:40:00,
2013-12-11 16:45:00,19.6,17.7,29.84,NE,49,1.0,1.0,92,0.00,,,0.00,Wunderground v.1.15,2013-12-11 21:45:00,
2013-12-11 16:50:00,19.6,17.7,29.83,WNW,294,1.0,2.0,92,0.00,,,0.00,Wunderground v.1.15,2013-12-11 21:50:00,
2013-12-11 16:55:00,19.5,17.6,29.83,NNW,344,1.0,4.0,92,0.00,,,0.00,Wunderground v.1.15,2013-12-11 21:55:00,
2013-12-11 17:00:00,19.5,17.6,29.83,WSW,238,1.0,4.0,92,0.00,,,0.00,Wunderground v.1.15,2013-12-11 22:00:00,
2013-12-11 17:05:00,19.5,17.6,29.83,WSW,238,0.0,4.0,92,0.00,,,0.00,Wunderground v.1.15,2013-12-11 22:05:00,
2013-12-11 17:10:00,19.5,17.6,29.83,WSW,237,0.0,4.0,92,0.00,,,0.00,Wunderground v.1.15,2013-12-11 22:10:00,
2013-12-11 17:15:00,19.5,17.6,29.84,WSW,237,0.0,4.0,92,0.00,,,0.00,Wunderground v.1.15,2013-12-11 22:15:00,
2013-12-11 17:20:00,19.5,17.6,29.84,WSW,238,0.0,4.0,92,0.00,,,0.00,Wunderground v.1.15,2013-12-11 22:20:00,
2013-12-11 17:25:00,19.5,17.6,29.84,WSW,238,0.0,4.0,92,0.00,,,0.00,Wunderground v.1.15,2013-12-11 22:25:00,
2013-12-11 17:30:00,19.5,17.6,29.84,WSW,237,0.0,4.0,92,0.00,,,0.00,Wunderground v.1.15,2013-12-11 22:30:00,
2013-12-11 17:35:00,19.5,17.6,29.84,North,360,0.0,4.0,92,0.00,,,0.00,Wunderground v.1.15,2013-12-11 22:35:00,
2013-12-11 17:40:00,19.5,17.6,29.84,WSW,250,1.0,4.0,92,0.00,,,0.00,Wunderground v.1.15,2013-12-11 22:40:00,
2013-12-11 17:45:00,19.5,17.6,29.84,SW,224,1.0,1.0,92,0.00,,,0.00,Wunderground v.1.15,2013-12-11 22:45:00,
2013-12-11 17:50:00,19.5,17.6,29.84,NW,309,2.0,2.0,92,0.00,,,0.00,Wunderground v.1.15,2013-12-11 22:50:00,
2013-12-11 17:55:00,19.4,17.2,29.85,West,278,2.0,4.0,91,0.00,,,0.00,Wunderground v.1.15,2013-12-11 22:55:00,
2013-12-11 18:00:00,19.3,17.1,29.84,WNW,290,2.0,4.0,91,0.00,,,0.00,Wunderground v.1.15,2013-12-11 23:00:00,
2013-12-11 18:05:00,19.3,17.1,29.84,WSW,254,1.0,4.0,91,0.00,,,0.00,Wunderground v.1.15,2013-12-11 23:05:00,
2013-12-11 18:10:00,19.3,17.1,29.84,West,269,1.0,4.0,91,0.00,,,0.00,Wunderground v.1.15,2013-12-11 23:10:00,
2013-12-11 18:15:00,19.3,17.4,29.84,NNW,336,1.0,1.0,92,0.00,,,0.00,Wunderground v.1.15,2013-12-11 23:15:00,
2013-12-11 18:20:00,19.3,17.1,29.84,NW,310,1.0,4.0,91,0.00,,,0.00,Wunderground v.1.15,2013-12-11 23:20:00,
2013-12-11 18:25:00,19.2,17.0,29.84,East,87,1.0,1.0,91,0.00,,,0.00,Wunderground v.1.15,2013-12-11 23:25:00,
2013-12-11 18:30:00,19.1,16.9,29.85,WSW,240,0.0,4.0,91,0.00,,,0.00,Wunderground v.1.15,2013-12-11 23:30:00,
2013-12-11 18:35:00,19.1,16.9,29.85,NNW,329,1.0,1.0,91,0.00,,,0.00,Wunderground v.1.15,2013-12-11 23:35:00,
2013-12-11 18:40:00,19.0,16.8,29.85,WSW,240,1.0,4.0,91,0.00,,,0.00,Wunderground v.1.15,2013-12-11 23:40:00,
2013-12-11 18:45:00,19.0,16.8,29.85,WSW,257,1.0,1.0,91,0.00,,,0.00,Wunderground v.1.15,2013-12-11 23:45:00,
2013-12-11 18:55:00,19.0,16.8,29.85,NNE,23,0.0,4.0,91,0.00,,,0.00,Wunderground v.1.15,2013-12-11 23:55:00,
2013-12-11 19:00:00,18.9,16.7,29.85,ENE,59,0.0,4.0,91,0.00,,,0.00,Wunderground v.1.15,2013-12-12 00:00:00,
2013-12-11 19:05:00,18.9,16.7,29.85,WSW,246,0.0,4.0,91,0.00,,,0.00,Wunderground v.1.15,2013-12-12 00:05:00,
2013-12-11 19:10:00,18.9,16.7,29.85,West,269,1.0,4.0,91,0.00,,,0.00,Wunderground v.1.15,2013-12-12 00:10:00,
2013-12-11 19:15:00,18.9,16.7,29.85,SSW,197,1.0,1.0,91,0.00,,,0.00,Wunderground v.1.15,2013-12-12 00:15:00,
2013-12-11 19:20:00,19.0,16.8,29.85,East,101,1.0,4.0,91,0.00,,,0.00,Wunderground v.1.15,2013-12-12 00:20:00,
2013-12-11 19:25:00,19.0,16.8,29.85,ESE,104,1.0,4.0,91,0.00,,,0.00,Wunderground v.1.15,2013-12-12 00:25:00,
2013-12-11 19:30:00,19.0,16.8,29.85,East,86,1.0,5.0,91,0.00,,,0.00,Wunderground v.1.15,2013-12-12 00:30:00,
2013-12-11 19:35:00,19.0,16.8,29.86,East,101,1.0,5.0,91,0.00,,,0.00,Wunderground v.1.15,2013-12-12 00:35:00,
2013-12-11 19:40:00,18.9,16.7,29.86,ENE,59,2.0,5.0,91,0.00,,,0.00,Wunderground v.1.15,2013-12-12 00:40:00,
2013-12-11 19:45:00,18.8,16.6,29.86,East,88,1.0,4.0,91,0.00,,,0.00,Wunderground v.1.15,2013-12-12 00:45:00,
2013-12-11 19:50:00,18.6,16.4,29.86,East,82,1.0,4.0,91,0.00,,,0.00,Wunderground v.1.15,2013-12-12 00:50:00,
2013-12-11 19:55:00,18.6,16.4,29.86,NNW,340,1.0,4.0,91,0.00,,,0.00,Wunderground v.1.15,2013-12-12 00:55:00,
2013-12-11 20:00:00,18.5,16.3,29.86,East,96,1.0,4.0,91,0.00,,,0.00,Wunderground v.1.15,2013-12-12 01:00:00,
2013-12-11 20:05:00,18.4,16.2,29.86,East,96,1.0,4.0,91,0.00,,,0.00,Wunderground v.1.15,2013-12-12 01:05:00,
2013-12-11 20:10:00,18.3,15.9,29.86,East,96,0.0,4.0,90,0.00,,,0.00,Wunderground v.1.15,2013-12-12 01:10:00,
2013-12-11 20:15:00,18.1,15.7,29.86,NNW,343,0.0,4.0,90,0.00,,,0.00,Wunderground v.1.15,2013-12-12 01:15:00,
2013-12-11 20:20:00,18.0,15.6,29.86,East,90,1.0,7.0,90,0.00,,,0.00,Wunderground v.1.15,2013-12-12 01:20:00,
2013-12-11 20:25:00,17.9,15.2,29.86,ENE,74,2.0,2.0,89,0.00,,,0.00,Wunderground v.1.15,2013-12-12 01:25:00,
2013-12-11 20:30:00,17.8,14.8,29.87,ENE,78,2.0,4.0,88,0.00,,,0.00,Wunderground v.1.15,2013-12-12 01:30:00,
2013-12-11 20:35:00,17.8,14.8,29.87,East,89,1.0,4.0,88,0.00,,,0.00,Wunderground v.1.15,2013-12-12 01:35:00,
2013-12-11 20:40:00,17.7,14.8,29.87,East,98,1.0,7.0,88,0.00,,,0.00,Wunderground v.1.15,2013-12-12 01:40:00,
2013-12-11 20:45:00,17.7,14.5,29.87,West,281,1.0,4.0,87,0.00,,,0.00,Wunderground v.1.15,2013-12-12 01:45:00,
2013-12-11 20:50:00,17.7,14.5,29.87,WSW,243,1.0,4.0,87,0.00,,,0.00,Wunderground v.1.15,2013-12-12 01:50:00,
2013-12-11 20:55:00,17.8,14.6,29.87,ENE,78,1.0,1.0,87,0.00,,,0.00,Wunderground v.1.15,2013-12-12 01:55:00,
2013-12-11 21:00:00,17.7,14.5,29.87,East,82,1.0,4.0,87,0.00,,,0.00,Wunderground v.1.15,2013-12-12 02:00:00,
2013-12-11 21:05:00,17.7,14.5,29.87,East,89,1.0,1.0,87,0.00,,,0.00,Wunderground v.1.15,2013-12-12 02:05:00,
2013-12-11 21:10:00,17.6,14.4,29.87,ENE,68,1.0,4.0,87,0.00,,,0.00,Wunderground v.1.15,2013-12-12 02:10:00,
2013-12-11 21:15:00,17.6,14.1,29.87,NE,53,3.0,4.0,86,0.00,,,0.00,Wunderground v.1.15,2013-12-12 02:15:00,
2013-12-11 21:20:00,17.5,14.0,29.87,ESE,111,3.0,4.0,86,0.00,,,0.00,Wunderground v.1.15,2013-12-12 02:20:00,
2013-12-11 21:25:00,17.3,13.6,29.87,SE,139,3.0,3.0,85,0.00,,,0.00,Wunderground v.1.15,2013-12-12 02:25:00,
2013-12-11 21:30:00,17.1,13.1,29.87,WNW,297,2.0,4.0,84,0.00,,,0.00,Wunderground v.1.15,2013-12-12 02:30:00,
2013-12-11 21:35:00,17.1,13.1,29.87,East,92,1.0,4.0,84,0.00,,,0.00,Wunderground v.1.15,2013-12-12 02:35:00,
2013-12-11 21:40:00,17.1,13.1,29.88,East,91,2.0,4.0,84,0.00,,,0.00,Wunderground v.1.15,2013-12-12 02:40:00,
2013-12-11 21:45:00,17.1,13.1,29.87,NE,38,2.0,2.0,84,0.00,,,0.00,Wunderground v.1.15,2013-12-12 02:45:00,
2013-12-11 21:50:00,17.0,12.7,29.88,NNW,341,2.0,4.0,83,0.00,,,0.00,Wunderground v.1.15,2013-12-12 02:50:00,
2013-12-11 21:55:00,16.8,12.3,29.88,ESE,105,2.0,4.0,82,0.00,,,0.00,Wunderground v.1.15,2013-12-12 02:55:00,
2013-12-11 22:00:00,16.7,11.9,29.88,West,271,2.0,4.0,81,0.00,,,0.00,Wunderground v.1.15,2013-12-12 03:00:00,
2013-12-11 22:05:00,16.7,11.6,29.88,NE,49,2.0,2.0,80,0.00,,,0.00,Wunderground v.1.15,2013-12-12 03:05:00,
2013-12-11 22:10:00,16.7,11.3,29.88,East,86,2.0,4.0,79,0.00,,,0.00,Wunderground v.1.15,2013-12-12 03:10:00,
2013-12-11 22:15:00,16.5,11.1,29.88,East,89,1.0,1.0,79,0.00,,,0.00,Wunderground v.1.15,2013-12-12 03:15:00,
2013-12-11 22:20:00,16.4,11.0,29.88,WSW,242,1.0,4.0,79,0.00,,,0.00,Wunderground v.1.15,2013-12-12 03:20:00,
2013-12-11 22:25:00,16.4,10.7,29.88,WSW,252,1.0,1.0,78,0.00,,,0.00,Wunderground v.1.15,2013-12-12 03:25:00,
2013-12-11 22:30:00,16.3,10.1,29.88,West,260,2.0,5.0,76,0.00,,,0.00,Wunderground v.1.15,2013-12-12 03:30:00,
2013-12-11 22:35:00,16.2,10.3,29.88,East,97,2.0,2.0,77,0.00,,,0.00,Wunderground v.1.15,2013-12-12 03:35:00,
2013-12-11 22:40:00,16.1,10.2,29.89,ENE,61,1.0,4.0,77,0.00,,,0.00,Wunderground v.1.15,2013-12-12 03:40:00,
2013-12-11 22:45:00,15.8,10.2,29.89,NNE,30,0.0,4.0,78,0.00,,,0.00,Wunderground v.1.15,2013-12-12 03:45:00,
2013-12-11 22:50:00,15.7,10.3,29.89,South,187,1.0,4.0,79,0.00,,,0.00,Wunderground v.1.15,2013-12-12 03:50:00,
2013-12-11 22:55:00,15.6,10.5,29.89,West,279,1.0,1.0,80,0.00,,,0.00,Wunderground v.1.15,2013-12-12 03:55:00,
2013-12-11 23:00:00,15.5,10.7,29.89,SE,131,1.0,4.0,81,0.00,,,0.00,Wunderground v.1.15,2013-12-12 04:00:00,
2013-12-11 23:05:00,15.4,10.6,29.90,East,101,1.0,4.0,81,0.00,,,0.00,Wunderground v.1.15,2013-12-12 04:05:00,
2013-12-11 23:10:00,15.1,10.3,29.90,West,281,1.0,4.0,81,0.00,,,0.00,Wunderground v.1.15,2013-12-12 04:10:00,
2013-12-11 23:15:00,14.9,10.1,29.90,West,262,1.0,1.0,81,0.00,,,0.00,Wunderground v.1.15,2013-12-12 04:15:00,
2013-12-11 23:20:00,14.8,10.0,29.90,ESE,123,1.0,4.0,81,0.00,,,0.00,Wunderground v.1.15,2013-12-12 04:20:00,
2013-12-11 23:25:00,14.7,9.9,29.90,West,275,1.0,1.0,81,0.00,,,0.00,Wunderground v.1.15,2013-12-12 04:25:00,
2013-12-11 23:30:00,14.6,9.8,29.90,East,82,2.0,2.0,81,0.00,,,0.00,Wunderground v.1.15,2013-12-12 04:30:00,
2013-12-11 23:35:00,14.5,9.7,29.90,NW,315,1.0,4.0,81,0.00,,,0.00,Wunderground v.1.15,2013-12-12 04:35:00,
2013-12-11 23:40:00,14.3,9.5,29.90,WSW,244,1.0,4.0,81,0.00,,,0.00,Wunderground v.1.15,2013-12-12 04:40:00,
2013-12-11 23:45:00,14.0,9.2,29.90,SSW,213,0.0,4.0,81,0.00,,,0.00,Wunderground v.1.15,2013-12-12 04:45:00,
2013-12-11 23:50:00,13.7,9.0,29.90,SSW,209,0.0,4.0,81,0.00,,,0.00,Wunderground v.1.15,2013-12-12 04:50:00,
2013-12-11 23:55:00,13.4,8.9,29.91,WSW,244,0.0,4.0,82,0.00,,,0.00,Wunderground v.1.15,2013-12-12 04:55:00,